Tracking 29892 objects as of 21-Nov-2024
HD Live streaming from Space Station
objects crossing your sky now

STARLINK-2753

Track STARLINK-2753 now!
10-day predictions
STARLINK-2753 is classified as:


NORAD ID: 48696
Int'l Code: 2021-044BL
Perigee: 553.6 km
Apogee: 555.1 km
Inclination: 53.1 °
Period: 95.6 minutes
Semi major axis: 6925 km
RCS: Unknown
Launch date: May 26, 2021
Source: United States (US)
Launch site: AIR FORCE EASTERN TEST RANGE (AFETR)
Your satellite tracking list
Your tracking list is empty




NASA's NSSDC Master Catalog

Two Line Element Set (TLE):
1 48696U 21044BL  24324.60166600  .00006742  00000-0  47093-3 0  9999
2 48696  53.0517  64.4163 0001096 130.3809 229.7276 15.06412105193362
Source of the keplerian elements: AFSPC